Weather History for Lander, WY

Change the Weather History Date:

Saturday, December 28, 2013

  Actual Average Record
Temperature  
Mean Temperature 29 °F 20 °F  
Max Temperature 38 °F 32 °F 58 °F (1945)
Min Temperature 19 °F 9 °F -17 °F (1900)
Degree Days  
Heating Degree Days 36 45  
Month to date heating degree days 1270 1242  
Since 1 July heating degree days 3158 3115  
Cooling Degree Days 0 0  
Month to date cooling degree days 0 0  
Year to date cooling degree days 743 472  
Moisture  
Dew Point 22 °F    
Average Humidity 78    
Maximum Humidity 100    
Minimum Humidity 56    
Precipitation  
Precipitation 0.27 in 0.01 in 0.37 in (1972)
Month to date precipitation 0.69 0.53  
Year to date precipitation 15.54 12.61  
Snow  
Snow 5.00 in 0.30 in - ()
Month to date snowfall 13.0 9.3  
Since 1 July snowfall 42.5 34.9  
Snow Depth 5.00 in    
Sea Level Pressure  
Sea Level Pressure 30.16 in    
Wind  
Wind Speed 5 mph (NW)    
Max Wind Speed 18 mph    
Max Gust Speed 23 mph    
Visibility 4 miles    
Events Fog , Snow    
T = Trace of Precipitation, MM = Missing Value Source: NWS Daily Summary

Daily Weather History Graph

Daily Weather History Graph

Search for Another Location

Airport:

Trip Planner

Search our weather history database for the weather conditions in past years. The results will help you decide how hot, cold, wet, or windy it might be!

Date:

Astronomy

Dec. 28, 2013 Rise Set
Actual Time 7:45 AM MST 4:48 PM MST
Civil Twilight 7:12 AM MST 5:20 PM MST
Nautical Twilight 6:37 AM MST 5:56 PM MST
Astronomical Twilight 6:02 AM MST 6:30 PM MST
Moon 3:22 AM MST (12/28) 1:44 PM MST (12/28)
Length of Visible Light 10h 07m
Length of Day
9h 03m
Waning Crescent, 18% of the Moon is Illuminated
Dec 28
Waning Crescent
Jan 1
New
Jan 7
First Quarter
Jan 15
Full
Jan 23
Last Quarter

Hourly Weather History & Observations

Time (MST) Temp. Windchill Dew Point Humidity Pressure Visibility Wind Dir Wind Speed Gust Speed Precip Events Conditions
12:53 AM 21.9 °F 13.4 °F 19.0 °F 89% 30.02 in 10.0 mi NNW 6.9 mph - N/A   Clear
1:53 AM 23.0 °F 15.8 °F 19.0 °F 85% 30.01 in 10.0 mi NW 5.8 mph - N/A   Clear
2:53 AM 26.1 °F 20.5 °F 19.0 °F 75% 29.99 in 10.0 mi Variable 4.6 mph - N/A   Clear
3:53 AM 21.9 °F - 18.0 °F 85% 30.01 in 10.0 mi Calm Calm - N/A   Clear
4:53 AM 21.9 °F 17.2 °F 19.0 °F 89% 30.01 in 10.0 mi ESE 3.5 mph - N/A   Clear
5:53 AM 21.9 °F - 18.0 °F 85% 30.02 in 10.0 mi Calm Calm - N/A   Clear
6:53 AM 21.9 °F - 18.0 °F 85% 30.03 in 10.0 mi Calm Calm - N/A   Clear
7:53 AM 24.1 °F - 18.0 °F 77% 30.04 in 10.0 mi Calm Calm - N/A   Clear
8:53 AM 28.9 °F 23.9 °F 18.0 °F 64% 30.04 in 10.0 mi SSE 4.6 mph - N/A   Clear
9:53 AM 26.1 °F 16.8 °F 19.0 °F 75% 30.08 in 10.0 mi ESE 9.2 mph - N/A   Clear
10:53 AM 27.0 °F 18.7 °F 19.9 °F 75% 30.14 in 9.0 mi WNW 8.1 mph - N/A   Overcast
11:53 AM 33.1 °F 25.5 °F 19.9 °F 59% 30.16 in 10.0 mi North 9.2 mph - N/A   Overcast
12:43 PM 30.9 °F 24.3 °F 24.1 °F 76% 30.09 in 1.8 mi ENE 6.9 mph - 0.00 in Snow Light Snow
12:53 PM 30.0 °F 25.2 °F 26.1 °F 85% 30.20 in 0.8 mi ENE 4.6 mph - 0.00 in Snow Light Snow
1:11 PM 28.9 °F 22.8 °F 27.0 °F 92% 30.08 in 0.2 mi ESE 5.8 mph - 0.01 in Fog , Snow Snow
1:45 PM 28.0 °F 22.8 °F 27.0 °F 96% 30.07 in 0.8 mi South 4.6 mph - 0.03 in Snow Light Snow
1:53 PM 28.0 °F 24.2 °F 27.0 °F 96% 30.19 in 1.2 mi South 3.5 mph - 0.03 in Snow Light Snow
2:04 PM 28.0 °F - 26.1 °F 92% 30.07 in 1.5 mi Calm Calm - 0.00 in Snow Light Snow
2:14 PM 28.0 °F - 26.1 °F 92% 30.08 in 1.2 mi Calm Calm - 0.00 in Snow Light Snow
2:19 PM 28.0 °F 24.2 °F 26.1 °F 92% 30.08 in 0.8 mi East 3.5 mph - 0.00 in Snow Light Snow
2:29 PM 28.0 °F - 26.1 °F 92% 30.08 in 0.2 mi Calm Calm - 0.02 in Fog , Snow Snow
2:53 PM 27.0 °F 15.2 °F 26.1 °F 96% 30.19 in 0.5 mi NNE 15.0 mph - 0.04 in Fog , Snow Snow
3:38 PM 25.0 °F 15.5 °F 23.0 °F 92% 30.11 in 0.5 mi North 9.2 mph - 0.02 in Fog , Snow Snow
3:53 PM 24.1 °F 15.2 °F 23.0 °F 96% 30.26 in 0.5 mi North 8.1 mph - 0.03 in Fog , Snow Light Snow
4:07 PM 24.1 °F 16.0 °F 23.0 °F 96% 30.13 in 0.8 mi NNW 6.9 mph - 0.01 in Snow Light Snow
4:53 PM 24.1 °F 17.0 °F 23.0 °F 96% 30.30 in 0.2 mi WNW 5.8 mph - 0.04 in Fog , Snow Heavy Snow
5:53 PM 23.0 °F 15.8 °F 21.9 °F 96% 30.32 in 0.5 mi WNW 5.8 mph - 0.05 in Fog , Snow Snow
6:53 PM 23.0 °F 15.8 °F 21.9 °F 96% 30.32 in 0.8 mi West 5.8 mph - 0.05 in Snow Light Snow
7:12 PM 23.0 °F 14.7 °F 21.0 °F 92% 30.19 in 1.0 mi West 6.9 mph - 0.01 in Snow Light Snow
7:41 PM 23.0 °F 17.0 °F 21.9 °F 96% 30.20 in 1.8 mi West 4.6 mph - 0.01 in Snow Light Snow
7:53 PM 23.0 °F 14.7 °F 21.0 °F 92% 30.33 in 1.8 mi West 6.9 mph - 0.01 in Snow Light Snow
8:00 PM 23.0 °F 15.8 °F 21.0 °F 92% 30.20 in 2.5 mi NW 5.8 mph - 0.00 in Snow Light Snow
8:13 PM 24.1 °F 18.2 °F 21.0 °F 88% 30.20 in 1.8 mi West 4.6 mph - 0.01 in Snow Light Snow
8:53 PM 23.0 °F 17.0 °F 21.9 °F 96% 30.32 in 1.8 mi WSW 4.6 mph - 0.01 in Snow Light Snow
9:09 PM 23.0 °F 17.0 °F 21.9 °F 96% 30.21 in 2.0 mi WSW 4.6 mph - 0.01 in Snow Light Snow
9:19 PM 23.0 °F - 21.0 °F 92% 30.22 in 5.0 mi Calm Calm - 0.01 in Snow Light Snow
9:53 PM 23.0 °F 17.0 °F 21.9 °F 96% 30.35 in 2.0 mi NNW 4.6 mph - 0.01 in Snow Light Snow
10:06 PM 23.0 °F - 21.9 °F 96% 30.23 in 4.0 mi Calm Calm - 0.00 in Snow Light Snow
10:53 PM 21.9 °F - 21.0 °F 96% 30.35 in 4.0 mi Calm Calm - 0.00 in   Overcast
11:49 PM 21.2 °F - 19.4 °F 93% 30.21 in 3.0 mi Calm Calm - N/A   Overcast
11:53 PM 21.0 °F 16.2 °F 19.9 °F 96% 30.32 in 3.0 mi East 3.5 mph - N/A   Overcast
11:58 PM 19.9 °F - 19.0 °F 96% 30.21 in 1.8 mi Calm Calm - N/A   Overcast